Location: Newark
(36.0797°N, 3.9744°E)
Time: 11:09:08
(UTC+00:00)

Vanguard 2 Rocket - Pass Details

Date: 08 December 2019
Orbit: 554 x 3326 km, 32.9° (Epoch: 27 January)

Event Time Altitude Azimuth Distance (km) Brightness Sun altitude
Rises 15:27:07 0° 211° (SSW) 7,168 12.9 9.8°
Reaches altitude 10° 15:33:22 10° 201° (SSW) 5,892 12.2 8.8°
Maximum altitude 15:46:30 28° 152° (SSE) 3,707 10.2 6.6°
Drops below altitude 10° 15:55:38 10° 99° (E) 4,050 9.8 5.1°
Sets 15:58:54 0° 87° (E) 4,665 10.0 4.5°
